Simultaneous Nadir Overpasses (SNOs) Predictions

Prediction of SNOs between AQUA and GOES-15 Satellite Orbit:

Table of predicted SNOs for the next 14.0 days since TLE Epoch: 4/13/2017
Index Date Time (AQUA) AQUA Lat,Lon GOES-15 Lat,Lon Distance(km) Time Diff (sec)
1 04/15/2017 22:35:12 0.05,-134.90 -0.07,-135.48 65.78 80
2 04/17/2017 22:23:00 0.66,-131.94 -0.07,-135.49 402.86 80
3 04/18/2017 10:44:16 0.44,-137.10 0.07,-135.45 188.06 80
4 04/20/2017 10:32:05 -0.23,-134.16 0.08,-135.45 148.32 80
5 04/20/2017 22:53:28 -0.91,-139.34 -0.07,-135.49 437.49 80
6 04/22/2017 10:19:53 -0.84,-131.20 0.08,-135.45 484.07 80
7 04/22/2017 22:41:16 -0.30,-136.38 -0.08,-135.49 101.89 80
8 04/24/2017 22:29:05 0.38,-133.43 -0.08,-135.48 233.19 80
9 04/25/2017 10:50:19 0.77,-138.58 0.08,-135.43 358.45 80
10 04/27/2017 10:38:08 0.09,-135.63 0.08,-135.41 24.66 80




NCC Satellite Simultaneous Nadir Overpasses (SNOs) Prediction Service
